OCN308 EDDF-GCRR

Flight info

Callsign OCN308
Flight time 4h 53m
Altitude 34000
Route ANEKI2L/18 ANEKI Y163 HERBI Y164 MOPAN DCT LUTIX DCT BENOT DCT NEMOS DCT NINTU DCT MEBAK DCT REPSI DCT LERGA DCT MINSO DCT NARAK DCT AGN DCT MAQAB DCT TIVLI N869 ZAR Z245 CJN N10 SVL N857 KORNO UN857 TERTO
Aircraft A320/M-SDE3FGHIRWY/LB1

Departure

Time 2026-05-04 17:25
Airport Frankfurt Main Airport (EDDF)

Arrival

Time 2026-05-04 22:19
Airport César Manrique-Lanzarote Airport (GCRR)
Time Latitude Longitude Altitude Speed Heading
2026-05-04 17:10 50.04380 8.56969 370 ft 0 kts 160°
2026-05-04 17:19 50.04294 8.56965 368 ft 12 kts 239°
2026-05-04 17:19 50.04273 8.56619 363 ft 19 kts 340°
2026-05-04 17:20 50.04334 8.56333 362 ft 19 kts 250°
2026-05-04 17:20 50.04231 8.55899 358 ft 23 kts 251°
2026-05-04 17:20 50.04174 8.55664 356 ft 23 kts 250°
2026-05-04 17:21 50.04063 8.55197 355 ft 23 kts 250°
2026-05-04 17:21 50.03939 8.54682 345 ft 26 kts 250°
2026-05-04 17:22 50.03874 8.54414 344 ft 25 kts 248°
2026-05-04 17:22 50.03788 8.54175 345 ft 24 kts 250°
2026-05-04 17:23 50.03628 8.53516 348 ft 20 kts 250°
2026-05-04 17:23 50.03577 8.53302 345 ft 22 kts 250°
2026-05-04 17:23 50.03467 8.52855 342 ft 22 kts 247°
2026-05-04 17:24 50.03407 8.52642 341 ft 20 kts 227°
2026-05-04 17:24 50.01959 8.52608 331 ft 158 kts 180°
2026-05-04 17:25 50.00732 8.52633 605 ft 186 kts 181°
2026-05-04 17:25 49.98177 8.52747 2123 ft 184 kts 179°
2026-05-04 17:26 49.95459 8.53003 3086 ft 214 kts 178°
2026-05-04 17:26 49.90630 8.53347 4095 ft 239 kts 179°
2026-05-04 17:27 49.87361 8.53538 5672 ft 244 kts 178°
2026-05-04 17:27 49.83757 8.53779 6812 ft 271 kts 178°
2026-05-04 17:28 49.79860 8.54047 7960 ft 296 kts 179°
2026-05-04 17:29 49.73511 8.53551 10114 ft 312 kts 186°
2026-05-04 17:29 49.66940 8.52683 12241 ft 323 kts 186°
2026-05-04 17:30 49.60143 8.51785 14132 ft 334 kts 186°
2026-05-04 17:31 49.55497 8.51174 15410 ft 339 kts 186°
2026-05-04 17:31 49.48377 8.50238 17248 ft 346 kts 186°
2026-05-04 17:32 49.43561 8.49607 18393 ft 351 kts 187°
2026-05-04 17:33 49.36200 8.48643 20043 ft 358 kts 187°
2026-05-04 17:33 49.33736 8.48322 20549 ft 361 kts 186°
2026-05-04 17:34 49.26160 8.47338 22044 ft 368 kts 186°
2026-05-04 17:34 49.23623 8.47008 22494 ft 371 kts 187°
2026-05-04 17:35 49.15859 8.45998 23857 ft 378 kts 187°
2026-05-04 17:35 49.10621 8.45321 24750 ft 382 kts 187°
2026-05-04 17:35 49.07962 8.44932 25181 ft 383 kts 189°
2026-05-04 17:36 49.05354 8.44337 25589 ft 385 kts 192°
2026-05-04 17:36 49.02715 8.43493 26003 ft 386 kts 194°
2026-05-04 17:36 49.00120 8.42587 26398 ft 388 kts 194°
2026-05-04 17:36 48.97465 8.41666 26783 ft 390 kts 194°
2026-05-04 17:37 48.94838 8.40755 27148 ft 392 kts 194°
2026-05-04 17:37 48.92160 8.39826 27515 ft 394 kts 194°
2026-05-04 17:37 48.89507 8.38906 27864 ft 396 kts 194°
2026-05-04 17:37 48.86785 8.37962 28247 ft 397 kts 194°
2026-05-04 17:38 48.84072 8.37022 28600 ft 399 kts 194°
2026-05-04 17:38 48.81381 8.36093 28927 ft 401 kts 194°
2026-05-04 17:38 48.78655 8.35148 29252 ft 402 kts 195°
2026-05-04 17:38 48.75924 8.34167 29575 ft 404 kts 195°
2026-05-04 17:39 48.70476 8.32166 30189 ft 407 kts 195°
2026-05-04 17:39 48.67707 8.31151 30475 ft 409 kts 195°
2026-05-04 17:39 48.64932 8.30137 30748 ft 410 kts 194°
2026-05-04 17:40 48.62182 8.29135 30998 ft 412 kts 195°
2026-05-04 17:40 48.59382 8.28116 31246 ft 414 kts 194°
2026-05-04 17:40 48.56608 8.27107 31498 ft 415 kts 194°
2026-05-04 17:40 48.53798 8.26089 31775 ft 416 kts 194°
2026-05-04 17:41 48.50996 8.25074 32119 ft 414 kts 194°
2026-05-04 17:41 48.48199 8.24062 32452 ft 413 kts 194°
2026-05-04 17:41 48.45426 8.23050 32704 ft 414 kts 194°
2026-05-04 17:41 48.42616 8.22021 32917 ft 415 kts 194°
2026-05-04 17:42 48.39807 8.20995 33128 ft 416 kts 194°
2026-05-04 17:42 48.37035 8.19983 33346 ft 416 kts 194°
2026-05-04 17:42 48.34199 8.18951 33546 ft 417 kts 195°
2026-05-04 17:42 48.31373 8.17923 33735 ft 418 kts 195°
2026-05-04 17:43 48.28595 8.16846 33915 ft 419 kts 197°
2026-05-04 17:43 48.25812 8.15549 33971 ft 419 kts 200°
2026-05-04 17:43 48.20405 8.12305 33978 ft 418 kts 205°
2026-05-04 17:44 48.15180 8.08463 33983 ft 419 kts 206°
2026-05-04 17:44 48.09974 8.04633 33994 ft 420 kts 206°
2026-05-04 17:45 48.04747 8.00793 34003 ft 419 kts 206°
2026-05-04 17:45 47.99528 7.96960 33999 ft 419 kts 206°
2026-05-04 17:46 47.94306 7.93132 33996 ft 419 kts 206°
2026-05-04 17:46 47.89065 7.89300 33994 ft 419 kts 206°
2026-05-04 17:47 47.83855 7.85498 33999 ft 418 kts 206°
2026-05-04 17:47 47.78642 7.81701 33995 ft 419 kts 206°
2026-05-04 17:48 47.73406 7.77897 33996 ft 419 kts 206°
2026-05-04 17:48 47.68187 7.74113 33995 ft 419 kts 207°
2026-05-04 17:49 47.62986 7.70348 34003 ft 419 kts 206°
2026-05-04 17:49 47.57754 7.66573 34004 ft 418 kts 207°
2026-05-04 17:50 47.52561 7.62831 33993 ft 418 kts 207°
2026-05-04 17:50 47.47341 7.59083 33995 ft 418 kts 207°
2026-05-04 17:51 47.42115 7.55333 34006 ft 417 kts 207°
2026-05-04 17:51 47.36924 7.51619 34004 ft 416 kts 207°
2026-05-04 17:52 47.31706 7.47890 34002 ft 416 kts 207°
2026-05-04 17:52 47.26518 7.44197 34007 ft 416 kts 207°
2026-05-04 17:53 47.21418 7.40171 34003 ft 416 kts 213°
2026-05-04 17:53 47.16715 7.35223 34002 ft 416 kts 220°
2026-05-04 17:54 47.12510 7.29425 34004 ft 416 kts 226°
2026-05-04 17:54 47.08817 7.22943 34001 ft 416 kts 231°
2026-05-04 17:55 47.05236 7.16340 34000 ft 415 kts 231°
2026-05-04 17:55 47.01637 7.09747 34011 ft 414 kts 230°
2026-05-04 17:56 46.98037 7.03164 34004 ft 414 kts 230°
2026-05-04 17:56 46.94455 6.96631 34008 ft 413 kts 231°
2026-05-04 17:57 46.90868 6.90104 34002 ft 412 kts 231°
2026-05-04 17:57 46.87277 6.83602 34008 ft 412 kts 231°
2026-05-04 17:58 46.83698 6.77141 34006 ft 412 kts 231°
2026-05-04 17:58 46.80098 6.70650 34003 ft 413 kts 231°
2026-05-04 17:59 46.76509 6.64194 33997 ft 412 kts 231°
2026-05-04 18:00 46.71096 6.54485 33987 ft 411 kts 231°
2026-05-04 18:00 46.67495 6.48046 33995 ft 411 kts 231°
2026-05-04 18:01 46.63903 6.41638 33991 ft 410 kts 231°
2026-05-04 18:01 46.60324 6.35268 33996 ft 409 kts 231°
2026-05-04 18:02 46.54932 6.25697 33989 ft 409 kts 230°
2026-05-04 18:02 46.51317 6.19298 33989 ft 409 kts 230°
2026-05-04 18:03 46.47735 6.12971 33990 ft 407 kts 230°
2026-05-04 18:03 46.44134 6.06628 33982 ft 406 kts 230°
2026-05-04 18:04 46.40572 6.00366 33983 ft 406 kts 230°
2026-05-04 18:05 46.35182 5.90918 33981 ft 405 kts 230°
2026-05-04 18:05 46.31609 5.84672 33979 ft 405 kts 230°
2026-05-04 18:06 46.26240 5.75314 33975 ft 404 kts 230°
2026-05-04 18:06 46.22678 5.69120 33980 ft 404 kts 230°
2026-05-04 18:07 46.19090 5.62898 33970 ft 405 kts 230°
2026-05-04 18:07 46.15519 5.56677 33977 ft 404 kts 231°
2026-05-04 18:08 46.12237 5.50125 33975 ft 403 kts 235°
2026-05-04 18:08 46.09068 5.43537 33973 ft 401 kts 234°
2026-05-04 18:09 46.02732 5.30387 33973 ft 400 kts 234°
2026-05-04 18:10 45.99556 5.23810 33975 ft 400 kts 234°
2026-05-04 18:10 45.96403 5.17296 33980 ft 400 kts 234°
2026-05-04 18:11 45.93218 5.10734 33978 ft 399 kts 234°
2026-05-04 18:11 45.90057 5.04234 33982 ft 399 kts 234°
2026-05-04 18:12 45.86873 4.97695 33985 ft 398 kts 233°
2026-05-04 18:12 45.83716 4.91230 33985 ft 398 kts 233°
2026-05-04 18:13 45.80550 4.84762 33975 ft 397 kts 233°
2026-05-04 18:14 45.75775 4.75031 33973 ft 398 kts 233°
2026-05-04 18:14 45.72606 4.68590 33967 ft 398 kts 233°
2026-05-04 18:15 45.66226 4.55681 33950 ft 399 kts 232°
2026-05-04 18:16 45.63035 4.49244 33941 ft 399 kts 232°
2026-05-04 18:16 45.59835 4.42800 33940 ft 399 kts 232°
2026-05-04 18:17 45.55000 4.33085 33944 ft 401 kts 231°
2026-05-04 18:18 45.50155 4.23400 33945 ft 402 kts 231°
2026-05-04 18:18 45.46888 4.16894 33937 ft 404 kts 230°
2026-05-04 18:19 45.41995 4.07167 33927 ft 406 kts 230°
2026-05-04 18:19 45.38697 4.00634 33923 ft 407 kts 230°
2026-05-04 18:20 45.35393 3.94097 33918 ft 407 kts 230°
2026-05-04 18:20 45.32098 3.87594 33917 ft 409 kts 230°
2026-05-04 18:21 45.28777 3.81052 33915 ft 408 kts 230°
2026-05-04 18:21 45.25454 3.74520 33918 ft 410 kts 230°
2026-05-04 18:22 45.22185 3.67899 33922 ft 412 kts 231°
2026-05-04 18:22 45.18934 3.61291 33920 ft 411 kts 231°
2026-05-04 18:23 45.15664 3.54658 33925 ft 412 kts 231°
2026-05-04 18:23 45.12398 3.48058 33926 ft 412 kts 231°
2026-05-04 18:24 45.09104 3.41414 33916 ft 411 kts 230°
2026-05-04 18:24 45.05822 3.34812 33913 ft 412 kts 230°
2026-05-04 18:25 45.02528 3.28203 33915 ft 411 kts 230°
2026-05-04 18:25 44.99242 3.21623 33908 ft 410 kts 230°
2026-05-04 18:26 44.95978 3.15101 33903 ft 410 kts 230°
2026-05-04 18:26 44.92703 3.08576 33905 ft 408 kts 230°
2026-05-04 18:27 44.89395 3.01999 33899 ft 409 kts 230°
2026-05-04 18:27 44.86129 2.95520 33906 ft 408 kts 230°
2026-05-04 18:28 44.82960 2.88868 33907 ft 409 kts 233°
2026-05-04 18:28 44.79888 2.82207 33901 ft 409 kts 233°
2026-05-04 18:29 44.76776 2.75472 33901 ft 409 kts 233°
2026-05-04 18:29 44.73697 2.68815 33906 ft 409 kts 233°
2026-05-04 18:30 44.69044 2.58786 33907 ft 410 kts 233°
2026-05-04 18:31 44.65930 2.52090 33903 ft 409 kts 234°
2026-05-04 18:31 44.62825 2.45434 33901 ft 408 kts 234°
2026-05-04 18:32 44.59728 2.38798 33897 ft 410 kts 234°
2026-05-04 18:32 44.56609 2.32140 33893 ft 409 kts 234°
2026-05-04 18:33 44.53480 2.25466 33895 ft 409 kts 234°
2026-05-04 18:33 44.50372 2.18866 33889 ft 409 kts 234°
2026-05-04 18:34 44.47239 2.12221 33892 ft 409 kts 234°
2026-05-04 18:34 44.44102 2.05582 33879 ft 411 kts 234°
2026-05-04 18:35 44.40944 1.98912 33871 ft 411 kts 234°
2026-05-04 18:35 44.37793 1.92274 33878 ft 412 kts 234°
2026-05-04 18:36 44.34648 1.85661 33885 ft 411 kts 234°
2026-05-04 18:36 44.31491 1.79033 33884 ft 411 kts 234°
2026-05-04 18:37 44.28326 1.72364 33888 ft 413 kts 235°
2026-05-04 18:37 44.25240 1.65634 33895 ft 414 kts 235°
2026-05-04 18:38 44.22144 1.58875 33895 ft 415 kts 235°
2026-05-04 18:38 44.19025 1.52099 33893 ft 416 kts 235°
2026-05-04 18:39 44.15890 1.45314 33900 ft 417 kts 235°
2026-05-04 18:39 44.12745 1.38521 33904 ft 418 kts 235°
2026-05-04 18:40 44.09614 1.31772 33904 ft 418 kts 234°
2026-05-04 18:40 44.06440 1.24956 33908 ft 421 kts 234°
2026-05-04 18:41 44.03258 1.18130 33911 ft 423 kts 234°
2026-05-04 18:41 44.00048 1.11261 33924 ft 426 kts 233°
2026-05-04 18:42 43.96818 1.04364 33929 ft 426 kts 234°
2026-05-04 18:42 43.93608 0.97532 33933 ft 425 kts 234°
2026-05-04 18:43 43.90232 0.90842 33918 ft 423 kts 229°
2026-05-04 18:43 43.86382 0.84682 33925 ft 420 kts 224°
2026-05-04 18:44 43.82181 0.79191 33924 ft 418 kts 220°
2026-05-04 18:44 43.77848 0.73826 33934 ft 418 kts 220°
2026-05-04 18:45 43.73515 0.68473 33924 ft 418 kts 220°
2026-05-04 18:45 43.69179 0.63135 33923 ft 418 kts 220°
2026-05-04 18:46 43.64841 0.57806 33927 ft 418 kts 220°
2026-05-04 18:46 43.60504 0.52490 33933 ft 418 kts 220°
2026-05-04 18:47 43.56204 0.47227 33931 ft 416 kts 221°
2026-05-04 18:47 43.51876 0.41943 33942 ft 415 kts 221°
2026-05-04 18:48 43.47561 0.36681 33948 ft 414 kts 221°
2026-05-04 18:48 43.43236 0.31421 33944 ft 414 kts 220°
2026-05-04 18:49 43.38953 0.26230 33945 ft 414 kts 220°
2026-05-04 18:49 43.34635 0.21010 33946 ft 414 kts 220°
2026-05-04 18:50 43.30314 0.15799 33957 ft 415 kts 220°
2026-05-04 18:50 43.25989 0.10589 33963 ft 414 kts 220°
2026-05-04 18:51 43.21666 0.05388 33962 ft 414 kts 221°
2026-05-04 18:51 43.17337 0.00189 33958 ft 415 kts 221°
2026-05-04 18:52 43.13007 -0.04999 33965 ft 414 kts 221°
2026-05-04 18:52 43.08673 -0.10181 33961 ft 415 kts 221°
2026-05-04 18:53 43.04370 -0.15316 33968 ft 414 kts 221°
2026-05-04 18:53 43.00035 -0.20480 33956 ft 414 kts 221°
2026-05-04 18:54 42.95701 -0.25640 33943 ft 414 kts 221°
2026-05-04 18:54 42.91370 -0.30779 33944 ft 414 kts 221°
2026-05-04 18:55 42.87009 -0.35916 33945 ft 414 kts 220°
2026-05-04 18:55 42.79950 -0.42705 33949 ft 415 kts 212°
2026-05-04 18:56 42.74852 -0.46374 33947 ft 416 kts 207°
2026-05-04 18:56 42.69530 -0.49349 33948 ft 417 kts 204°
2026-05-04 18:57 42.64135 -0.52204 33949 ft 416 kts 204°
2026-05-04 18:57 42.58741 -0.55050 33950 ft 417 kts 204°
2026-05-04 18:58 42.53344 -0.57886 33956 ft 417 kts 204°
2026-05-04 18:58 42.47938 -0.60713 33953 ft 417 kts 204°
2026-05-04 18:59 42.42544 -0.63534 33951 ft 416 kts 204°
2026-05-04 18:59 42.37114 -0.66365 33947 ft 417 kts 204°
2026-05-04 19:00 42.31750 -0.69156 33941 ft 416 kts 204°
2026-05-04 19:00 42.26351 -0.71962 33940 ft 416 kts 204°
2026-05-04 19:01 42.20955 -0.74759 33932 ft 416 kts 204°
2026-05-04 19:01 42.15560 -0.77553 33926 ft 416 kts 204°
2026-05-04 19:02 42.10160 -0.80344 33927 ft 417 kts 204°
2026-05-04 19:02 42.04747 -0.83138 33921 ft 417 kts 204°
2026-05-04 19:03 41.99328 -0.85925 33920 ft 417 kts 205°
2026-05-04 19:03 41.93911 -0.88702 33927 ft 417 kts 205°
2026-05-04 19:04 41.88494 -0.91478 33930 ft 417 kts 205°
2026-05-04 19:04 41.83081 -0.94247 33930 ft 417 kts 205°
2026-05-04 19:05 41.77702 -0.96996 33932 ft 417 kts 205°
2026-05-04 19:05 41.72329 -0.99857 33933 ft 415 kts 208°
2026-05-04 19:06 41.67221 -1.03361 33932 ft 412 kts 213°
2026-05-04 19:06 41.62459 -1.07550 33924 ft 410 kts 219°
2026-05-04 19:07 41.58081 -1.12373 33924 ft 409 kts 224°
2026-05-04 19:07 41.53866 -1.17440 33928 ft 409 kts 224°
2026-05-04 19:08 41.49653 -1.22497 33933 ft 409 kts 224°
2026-05-04 19:08 41.45441 -1.27553 33936 ft 408 kts 224°
2026-05-04 19:09 41.41232 -1.32599 33942 ft 408 kts 224°
2026-05-04 19:09 41.37023 -1.37638 33953 ft 408 kts 224°
2026-05-04 19:10 41.32811 -1.42672 33952 ft 408 kts 224°
2026-05-04 19:10 41.28595 -1.47701 33964 ft 408 kts 224°
2026-05-04 19:11 41.24381 -1.52719 33958 ft 408 kts 225°
2026-05-04 19:11 41.20166 -1.57733 33966 ft 408 kts 225°
2026-05-04 19:12 41.13835 -1.65242 33965 ft 408 kts 224°
2026-05-04 19:13 41.09607 -1.70248 33967 ft 408 kts 224°
2026-05-04 19:13 41.05383 -1.75241 33962 ft 408 kts 224°
2026-05-04 19:14 41.01156 -1.80218 33968 ft 407 kts 224°
2026-05-04 19:14 40.96928 -1.85186 33964 ft 406 kts 224°
2026-05-04 19:15 40.92709 -1.90138 33964 ft 407 kts 224°
2026-05-04 19:15 40.88487 -1.95088 33973 ft 407 kts 224°
2026-05-04 19:16 40.84259 -2.00034 33972 ft 407 kts 225°
2026-05-04 19:16 40.80033 -2.04970 33972 ft 407 kts 225°
2026-05-04 19:17 40.75805 -2.09902 33973 ft 407 kts 225°
2026-05-04 19:17 40.71570 -2.14830 33972 ft 407 kts 225°
2026-05-04 19:18 40.67329 -2.19739 33975 ft 407 kts 225°
2026-05-04 19:18 40.63086 -2.24647 33975 ft 407 kts 225°
2026-05-04 19:19 40.58845 -2.29543 33974 ft 406 kts 225°
2026-05-04 19:19 40.54607 -2.34431 33973 ft 406 kts 225°
2026-05-04 19:20 40.50372 -2.39309 33974 ft 406 kts 225°
2026-05-04 19:20 40.46137 -2.44178 33970 ft 405 kts 225°
2026-05-04 19:21 40.41902 -2.49035 33973 ft 405 kts 225°
2026-05-04 19:21 40.37783 -2.53992 33975 ft 402 kts 229°
2026-05-04 19:22 40.34057 -2.59389 33976 ft 400 kts 233°
2026-05-04 19:22 40.30507 -2.64961 33988 ft 399 kts 233°
2026-05-04 19:23 40.26958 -2.70523 33984 ft 399 kts 233°
2026-05-04 19:23 40.23409 -2.76084 33987 ft 399 kts 233°
2026-05-04 19:24 40.19859 -2.81644 33980 ft 399 kts 233°
2026-05-04 19:24 40.16308 -2.87193 33977 ft 399 kts 233°
2026-05-04 19:25 40.12761 -2.92728 33985 ft 398 kts 233°
2026-05-04 19:25 40.09223 -2.98240 33979 ft 397 kts 233°
2026-05-04 19:26 40.05682 -3.03748 33974 ft 397 kts 233°
2026-05-04 19:26 40.02145 -3.09240 33984 ft 396 kts 233°
2026-05-04 19:27 39.98603 -3.14724 33974 ft 396 kts 234°
2026-05-04 19:27 39.95071 -3.20191 33977 ft 395 kts 234°
2026-05-04 19:28 39.91535 -3.25657 33974 ft 396 kts 234°
2026-05-04 19:28 39.88015 -3.31087 33973 ft 396 kts 234°
2026-05-04 19:29 39.84472 -3.36542 33975 ft 395 kts 234°
2026-05-04 19:29 39.80934 -3.41977 33977 ft 395 kts 234°
2026-05-04 19:30 39.77312 -3.47332 33974 ft 397 kts 231°
2026-05-04 19:30 39.73443 -3.52439 33975 ft 398 kts 230°
2026-05-04 19:31 39.69577 -3.57546 33978 ft 398 kts 231°
2026-05-04 19:31 39.65704 -3.62646 33977 ft 398 kts 230°
2026-05-04 19:32 39.61829 -3.67735 33985 ft 397 kts 230°
2026-05-04 19:32 39.57953 -3.72815 33979 ft 397 kts 230°
2026-05-04 19:33 39.54075 -3.77882 33983 ft 397 kts 230°
2026-05-04 19:33 39.50192 -3.82948 33987 ft 397 kts 230°
2026-05-04 19:34 39.46309 -3.88009 33993 ft 397 kts 230°
2026-05-04 19:34 39.42422 -3.93069 33995 ft 398 kts 230°
2026-05-04 19:35 39.38529 -3.98128 33992 ft 398 kts 230°
2026-05-04 19:35 39.34644 -4.03171 33991 ft 397 kts 230°
2026-05-04 19:36 39.30757 -4.08205 33984 ft 397 kts 230°
2026-05-04 19:36 39.26867 -4.13238 33980 ft 397 kts 230°
2026-05-04 19:37 39.22971 -4.18265 33984 ft 398 kts 230°
2026-05-04 19:37 39.19065 -4.23301 33975 ft 398 kts 230°
2026-05-04 19:38 39.15153 -4.28337 33986 ft 399 kts 231°
2026-05-04 19:38 39.11234 -4.33373 33981 ft 399 kts 231°
2026-05-04 19:39 39.07317 -4.38399 33989 ft 399 kts 231°
2026-05-04 19:39 39.03398 -4.43420 33987 ft 398 kts 230°
2026-05-04 19:40 38.99478 -4.48433 33988 ft 398 kts 230°
2026-05-04 19:40 38.95553 -4.53444 33982 ft 398 kts 231°
2026-05-04 19:41 38.91621 -4.58446 33989 ft 399 kts 231°
2026-05-04 19:41 38.87686 -4.63440 33987 ft 398 kts 231°
2026-05-04 19:42 38.83727 -4.68466 33984 ft 399 kts 230°
2026-05-04 19:42 38.79788 -4.73456 33990 ft 400 kts 230°
2026-05-04 19:43 38.75848 -4.78443 33989 ft 399 kts 230°
2026-05-04 19:43 38.71907 -4.83422 33987 ft 400 kts 230°
2026-05-04 19:44 38.67958 -4.88405 33993 ft 399 kts 230°
2026-05-04 19:44 38.64011 -4.93376 33991 ft 399 kts 230°
2026-05-04 19:45 38.60057 -4.98345 33989 ft 400 kts 230°
2026-05-04 19:45 38.56071 -5.03291 33993 ft 402 kts 229°
2026-05-04 19:46 38.51758 -5.07855 33996 ft 406 kts 223°
2026-05-04 19:46 38.47063 -5.11893 33997 ft 410 kts 218°
2026-05-04 19:47 38.42014 -5.15350 33998 ft 415 kts 213°
2026-05-04 19:47 38.36839 -5.18581 33998 ft 415 kts 213°
2026-05-04 19:48 38.31662 -5.21804 34001 ft 415 kts 213°
2026-05-04 19:48 38.26480 -5.25019 34001 ft 415 kts 213°
2026-05-04 19:49 38.21294 -5.28226 34006 ft 416 kts 213°
2026-05-04 19:49 38.16092 -5.31441 34014 ft 416 kts 213°
2026-05-04 19:50 38.10886 -5.34650 34019 ft 417 kts 213°
2026-05-04 19:50 38.05683 -5.37854 34018 ft 416 kts 213°
2026-05-04 19:51 38.00475 -5.41054 34022 ft 417 kts 213°
2026-05-04 19:51 37.95258 -5.44254 34025 ft 416 kts 213°
2026-05-04 19:52 37.90048 -5.47447 34023 ft 417 kts 213°
2026-05-04 19:52 37.84852 -5.50626 34026 ft 418 kts 213°
2026-05-04 19:53 37.79625 -5.53817 34022 ft 418 kts 213°
2026-05-04 19:53 37.74388 -5.57010 34016 ft 419 kts 213°
2026-05-04 19:54 37.69159 -5.60196 34016 ft 418 kts 213°
2026-05-04 19:54 37.63934 -5.63372 34014 ft 417 kts 213°
2026-05-04 19:55 37.58706 -5.66545 34017 ft 418 kts 212°
2026-05-04 19:55 37.53473 -5.69718 34019 ft 418 kts 212°
2026-05-04 19:56 37.48243 -5.72902 34018 ft 418 kts 213°
2026-05-04 19:56 37.43205 -5.76529 34023 ft 413 kts 219°
2026-05-04 19:57 37.38565 -5.80707 34027 ft 410 kts 224°
2026-05-04 19:57 37.34215 -5.85289 34024 ft 408 kts 225°
2026-05-04 19:58 37.29883 -5.89883 34022 ft 408 kts 225°
2026-05-04 19:58 37.25562 -5.94464 34021 ft 407 kts 225°
2026-05-04 19:59 37.21242 -5.99041 34023 ft 407 kts 225°
2026-05-04 19:59 37.16919 -6.03615 34028 ft 408 kts 225°
2026-05-04 20:00 37.12591 -6.08190 34025 ft 408 kts 226°
2026-05-04 20:00 37.08262 -6.12760 34029 ft 408 kts 225°
2026-05-04 20:01 37.03928 -6.17323 34027 ft 409 kts 226°
2026-05-04 20:01 36.99585 -6.21893 34020 ft 408 kts 226°
2026-05-04 20:02 36.95244 -6.26454 34022 ft 409 kts 225°
2026-05-04 20:02 36.90926 -6.30985 34036 ft 409 kts 226°
2026-05-04 20:03 36.86577 -6.35539 34042 ft 409 kts 226°
2026-05-04 20:03 36.82231 -6.40082 34031 ft 408 kts 226°
2026-05-04 20:04 36.77888 -6.44616 34031 ft 408 kts 226°
2026-05-04 20:04 36.73548 -6.49140 34028 ft 407 kts 226°
2026-05-04 20:05 36.69209 -6.53658 34029 ft 407 kts 226°
2026-05-04 20:05 36.64864 -6.58174 34034 ft 408 kts 226°
2026-05-04 20:06 36.60518 -6.62689 34035 ft 408 kts 226°
2026-05-04 20:06 36.56168 -6.67199 34034 ft 408 kts 225°
2026-05-04 20:07 36.51817 -6.71702 34035 ft 407 kts 225°
2026-05-04 20:07 36.47462 -6.76193 34042 ft 408 kts 225°
2026-05-04 20:08 36.43102 -6.80680 34043 ft 408 kts 225°
2026-05-04 20:08 36.38737 -6.85170 34044 ft 409 kts 225°
2026-05-04 20:09 36.34366 -6.89664 34047 ft 409 kts 225°
2026-05-04 20:09 36.29996 -6.94148 34047 ft 408 kts 225°
2026-05-04 20:10 36.25631 -6.98620 34052 ft 408 kts 225°
2026-05-04 20:10 36.21261 -7.03092 34054 ft 408 kts 225°
2026-05-04 20:11 36.16888 -7.07556 34056 ft 409 kts 225°
2026-05-04 20:11 36.12512 -7.12020 34056 ft 409 kts 225°
2026-05-04 20:12 36.08132 -7.16482 34059 ft 409 kts 225°
2026-05-04 20:12 36.03743 -7.20948 34059 ft 410 kts 225°
2026-05-04 20:13 35.99353 -7.25410 34061 ft 409 kts 225°
2026-05-04 20:13 35.94960 -7.29867 34066 ft 409 kts 225°
2026-05-04 20:14 35.90576 -7.34309 34066 ft 408 kts 225°
2026-05-04 20:14 35.86175 -7.38762 34069 ft 409 kts 225°
2026-05-04 20:15 35.81777 -7.43192 34070 ft 409 kts 225°
2026-05-04 20:15 35.77356 -7.47601 34075 ft 410 kts 225°
2026-05-04 20:16 35.72934 -7.52006 34076 ft 410 kts 225°
2026-05-04 20:16 35.68505 -7.56418 34077 ft 410 kts 224°
2026-05-04 20:17 35.64076 -7.60821 34077 ft 411 kts 225°
2026-05-04 20:17 35.59628 -7.65240 34081 ft 412 kts 224°
2026-05-04 20:18 35.55176 -7.69661 34087 ft 412 kts 224°
2026-05-04 20:18 35.50717 -7.74074 34084 ft 412 kts 224°
2026-05-04 20:19 35.46259 -7.78491 34089 ft 412 kts 224°
2026-05-04 20:19 35.41800 -7.82893 34090 ft 412 kts 224°
2026-05-04 20:20 35.37358 -7.87313 34091 ft 412 kts 224°
2026-05-04 20:20 35.32922 -7.91746 34092 ft 413 kts 224°
2026-05-04 20:21 35.28487 -7.96174 34093 ft 413 kts 224°
2026-05-04 20:21 35.21813 -8.02824 34097 ft 413 kts 224°
2026-05-04 20:22 35.17359 -8.07255 34093 ft 414 kts 224°
2026-05-04 20:22 35.12902 -8.11681 34102 ft 414 kts 224°
2026-05-04 20:23 35.08436 -8.16111 34098 ft 414 kts 224°
2026-05-04 20:23 35.03965 -8.20532 34099 ft 415 kts 224°
2026-05-04 20:24 34.99488 -8.24960 34101 ft 415 kts 224°
2026-05-04 20:24 34.95012 -8.29380 34094 ft 415 kts 224°
2026-05-04 20:25 34.90530 -8.33802 34094 ft 415 kts 224°
2026-05-04 20:25 34.86041 -8.38220 34097 ft 414 kts 224°
2026-05-04 20:26 34.81566 -8.42617 34096 ft 415 kts 224°
2026-05-04 20:26 34.77082 -8.47018 34091 ft 415 kts 224°
2026-05-04 20:27 34.72602 -8.51412 34092 ft 415 kts 223°
2026-05-04 20:27 34.68112 -8.55805 34092 ft 415 kts 223°
2026-05-04 20:28 34.63613 -8.60204 34093 ft 416 kts 223°
2026-05-04 20:28 34.59115 -8.64595 34095 ft 415 kts 223°
2026-05-04 20:29 34.54615 -8.68983 34089 ft 416 kts 223°
2026-05-04 20:29 34.50122 -8.73361 34094 ft 415 kts 223°
2026-05-04 20:30 34.45632 -8.77727 34090 ft 414 kts 222°
2026-05-04 20:30 34.41130 -8.82070 34096 ft 415 kts 222°
2026-05-04 20:31 34.36609 -8.86408 34096 ft 415 kts 222°
2026-05-04 20:31 34.32087 -8.90747 34094 ft 416 kts 222°
2026-05-04 20:32 34.27565 -8.95079 34094 ft 416 kts 222°
2026-05-04 20:32 34.23040 -8.99412 34102 ft 416 kts 222°
2026-05-04 20:33 34.18541 -9.03716 34090 ft 415 kts 222°
2026-05-04 20:33 34.14019 -9.08033 34100 ft 415 kts 222°
2026-05-04 20:34 34.09498 -9.12346 34095 ft 414 kts 221°
2026-05-04 20:34 34.04983 -9.16645 34095 ft 414 kts 222°
2026-05-04 20:35 34.00465 -9.20942 34099 ft 415 kts 221°
2026-05-04 20:35 33.95908 -9.25269 34092 ft 415 kts 222°
2026-05-04 20:36 33.91390 -9.29553 34088 ft 414 kts 222°
2026-05-04 20:36 33.86872 -9.33834 34086 ft 414 kts 222°
2026-05-04 20:37 33.82361 -9.38103 34095 ft 413 kts 222°
2026-05-04 20:37 33.77851 -9.42360 34081 ft 413 kts 222°
2026-05-04 20:38 33.73373 -9.46585 34083 ft 413 kts 222°
2026-05-04 20:38 33.68829 -9.50866 34085 ft 413 kts 222°
2026-05-04 20:39 33.64348 -9.55079 34089 ft 413 kts 222°
2026-05-04 20:39 33.59802 -9.59351 34092 ft 413 kts 222°
2026-05-04 20:40 33.55286 -9.63588 34087 ft 413 kts 222°
2026-05-04 20:40 33.50765 -9.67824 34078 ft 413 kts 222°
2026-05-04 20:41 33.46250 -9.72049 34082 ft 412 kts 221°
2026-05-04 20:41 33.41741 -9.76265 34090 ft 412 kts 221°
2026-05-04 20:42 33.37230 -9.80474 34085 ft 411 kts 222°
2026-05-04 20:42 33.32712 -9.84683 34073 ft 412 kts 222°
2026-05-04 20:43 33.28204 -9.88879 34076 ft 411 kts 222°
2026-05-04 20:43 33.23700 -9.93065 34072 ft 411 kts 222°
2026-05-04 20:44 33.19193 -9.97251 34076 ft 411 kts 222°
2026-05-04 20:44 33.14692 -10.01425 34074 ft 410 kts 222°
2026-05-04 20:45 33.10204 -10.05580 34083 ft 409 kts 222°
2026-05-04 20:45 33.05721 -10.09728 34076 ft 408 kts 223°
2026-05-04 20:46 33.01238 -10.13868 34078 ft 409 kts 223°
2026-05-04 20:46 32.96740 -10.18004 34079 ft 409 kts 222°
2026-05-04 20:47 32.92245 -10.22129 34080 ft 408 kts 222°
2026-05-04 20:47 32.87768 -10.26235 34082 ft 409 kts 222°
2026-05-04 20:48 32.83272 -10.30358 34077 ft 408 kts 222°
2026-05-04 20:48 32.78784 -10.34465 34079 ft 407 kts 222°
2026-05-04 20:49 32.74295 -10.38571 34081 ft 408 kts 222°
2026-05-04 20:49 32.69801 -10.42676 34077 ft 408 kts 222°
2026-05-04 20:50 32.65308 -10.46775 34079 ft 408 kts 223°
2026-05-04 20:50 32.60814 -10.50869 34076 ft 407 kts 222°
2026-05-04 20:51 32.56320 -10.54955 34077 ft 408 kts 223°
2026-05-04 20:51 32.51821 -10.59043 34082 ft 408 kts 223°
2026-05-04 20:52 32.47332 -10.63116 34078 ft 406 kts 222°
2026-05-04 20:52 32.42849 -10.67180 34083 ft 407 kts 222°
2026-05-04 20:53 32.38363 -10.71242 34081 ft 407 kts 222°
2026-05-04 20:53 32.33870 -10.75300 34081 ft 407 kts 222°
2026-05-04 20:54 32.29385 -10.79351 34077 ft 407 kts 222°
2026-05-04 20:54 32.24898 -10.83397 34077 ft 406 kts 222°
2026-05-04 20:55 32.20411 -10.87439 34080 ft 406 kts 222°
2026-05-04 20:55 32.15921 -10.91476 34078 ft 407 kts 222°
2026-05-04 20:56 32.11427 -10.95514 34077 ft 406 kts 222°
2026-05-04 20:56 32.06939 -10.99542 34077 ft 406 kts 222°
2026-05-04 20:57 32.02445 -11.03568 34082 ft 406 kts 222°
2026-05-04 20:57 31.97954 -11.07587 34077 ft 405 kts 222°
2026-05-04 20:58 31.93473 -11.11595 34074 ft 405 kts 222°
2026-05-04 20:58 31.88991 -11.15596 34066 ft 404 kts 222°
2026-05-04 20:59 31.84509 -11.19593 34074 ft 405 kts 222°
2026-05-04 20:59 31.80034 -11.23582 34068 ft 404 kts 222°
2026-05-04 21:00 31.75574 -11.27550 34062 ft 403 kts 222°
2026-05-04 21:00 31.71123 -11.31510 34072 ft 402 kts 222°
2026-05-04 21:01 31.66679 -11.35467 34066 ft 402 kts 222°
2026-05-04 21:01 31.62235 -11.39420 34069 ft 401 kts 222°
2026-05-04 21:02 31.57795 -11.43367 34061 ft 401 kts 222°
2026-05-04 21:02 31.53364 -11.47304 34062 ft 399 kts 222°
2026-05-04 21:03 31.48944 -11.51221 34073 ft 399 kts 222°
2026-05-04 21:03 31.44532 -11.55130 34070 ft 398 kts 222°
2026-05-04 21:04 31.40135 -11.59023 34078 ft 396 kts 222°
2026-05-04 21:04 31.35737 -11.62909 34076 ft 397 kts 222°
2026-05-04 21:05 31.31332 -11.66799 34078 ft 397 kts 222°
2026-05-04 21:05 31.26934 -11.70676 34080 ft 396 kts 221°
2026-05-04 21:06 31.22544 -11.74544 34073 ft 396 kts 222°
2026-05-04 21:06 31.18152 -11.78409 34073 ft 396 kts 221°
2026-05-04 21:07 31.13759 -11.82268 34072 ft 395 kts 222°
2026-05-04 21:07 31.09362 -11.86126 34076 ft 395 kts 222°
2026-05-04 21:08 31.04963 -11.89984 34076 ft 395 kts 221°
2026-05-04 21:08 31.00570 -11.93830 34076 ft 395 kts 222°
2026-05-04 21:09 30.96174 -11.97674 34074 ft 395 kts 221°
2026-05-04 21:09 30.91781 -12.01512 34075 ft 395 kts 221°
2026-05-04 21:10 30.87383 -12.05350 34076 ft 394 kts 222°
2026-05-04 21:10 30.82996 -12.09174 34080 ft 394 kts 222°
2026-05-04 21:11 30.78611 -12.12992 34072 ft 394 kts 222°
2026-05-04 21:11 30.74231 -12.16800 34067 ft 393 kts 222°
2026-05-04 21:12 30.69855 -12.20602 34072 ft 393 kts 221°
2026-05-04 21:12 30.65484 -12.24395 34072 ft 392 kts 222°
2026-05-04 21:13 30.61124 -12.28176 34075 ft 391 kts 221°
2026-05-04 21:13 30.56763 -12.31953 34076 ft 391 kts 222°
2026-05-04 21:14 30.52401 -12.35724 34083 ft 391 kts 222°
2026-05-04 21:14 30.48039 -12.39483 34070 ft 390 kts 222°
2026-05-04 21:15 30.43675 -12.43227 34068 ft 391 kts 222°
2026-05-04 21:15 30.39312 -12.46969 34068 ft 390 kts 222°
2026-05-04 21:16 30.34965 -12.50694 34076 ft 389 kts 222°
2026-05-04 21:16 30.30626 -12.54415 34068 ft 389 kts 222°
2026-05-04 21:17 30.26283 -12.58131 34070 ft 388 kts 222°
2026-05-04 21:17 30.21991 -12.61797 34075 ft 372 kts 222°
2026-05-04 21:18 30.19962 -12.63526 34069 ft 354 kts 223°
2026-05-04 21:18 30.18028 -12.65177 34059 ft 338 kts 222°
2026-05-04 21:18 30.16181 -12.66751 34066 ft 322 kts 223°
2026-05-04 21:18 30.14410 -12.68265 34074 ft 313 kts 223°
2026-05-04 21:19 30.10924 -12.71248 34073 ft 311 kts 223°
2026-05-04 21:19 30.08178 -12.74881 34076 ft 301 kts 248°
2026-05-04 21:20 30.07651 -12.77213 34079 ft 304 kts 261°
2026-05-04 21:20 30.07723 -12.79659 34079 ft 311 kts 275°
2026-05-04 21:20 30.08435 -12.82057 34079 ft 325 kts 289°
2026-05-04 21:20 30.09815 -12.84197 34077 ft 345 kts 306°
2026-05-04 21:21 30.11854 -12.85816 34076 ft 371 kts 324°
2026-05-04 21:21 30.14444 -12.86576 34076 ft 401 kts 347°
2026-05-04 21:21 30.17299 -12.86143 34078 ft 430 kts 11°
2026-05-04 21:21 30.20000 -12.84502 34087 ft 448 kts 28°
2026-05-04 21:22 30.24915 -12.80016 34074 ft 451 kts 33°
2026-05-04 21:22 30.29558 -12.75140 34043 ft 461 kts 55°
2026-05-04 21:23 30.30860 -12.71774 34060 ft 460 kts 79°
2026-05-04 21:23 30.31065 -12.68144 34069 ft 449 kts 104°
2026-05-04 21:23 30.30177 -12.64799 34065 ft 427 kts 129°
2026-05-04 21:23 30.28394 -12.62228 34060 ft 399 kts 153°
2026-05-04 21:24 30.26068 -12.60784 34065 ft 366 kts 178°
2026-05-04 21:24 30.23659 -12.60626 34072 ft 335 kts 202°
2026-05-04 21:24 30.21523 -12.61475 34090 ft 320 kts 214°
2026-05-04 21:24 30.19624 -12.62748 34076 ft 313 kts 223°
2026-05-04 21:25 30.16428 -12.66054 34070 ft 308 kts 227°
2026-05-04 21:25 30.13124 -12.69227 34075 ft 310 kts 224°
2026-05-04 21:26 30.09721 -12.72267 34068 ft 307 kts 228°
2026-05-04 21:26 30.08440 -12.74178 34072 ft 300 kts 244°
2026-05-04 21:26 30.07745 -12.76435 34083 ft 301 kts 257°
2026-05-04 21:27 30.07623 -12.78851 34080 ft 307 kts 270°
2026-05-04 21:27 30.08118 -12.81274 34077 ft 318 kts 284°
2026-05-04 21:27 30.09269 -12.83516 34083 ft 336 kts 300°
2026-05-04 21:27 30.11080 -12.85338 34077 ft 359 kts 317°
2026-05-04 21:28 30.13487 -12.86429 34073 ft 389 kts 338°
2026-05-04 21:28 30.16280 -12.86441 34070 ft 419 kts
2026-05-04 21:28 30.19070 -12.85178 34081 ft 444 kts 24°
2026-05-04 21:28 30.21611 -12.83102 34086 ft 450 kts 32°
2026-05-04 21:29 30.26490 -12.78570 34076 ft 449 kts 32°
2026-05-04 21:29 30.28848 -12.76191 34046 ft 456 kts 46°
2026-05-04 21:29 30.30496 -12.73062 34066 ft 460 kts 71°
2026-05-04 21:30 30.31097 -12.69476 34076 ft 454 kts 95°
2026-05-04 21:30 30.30584 -12.65973 34067 ft 436 kts 120°
2026-05-04 21:30 30.29081 -12.63072 34061 ft 410 kts 144°
2026-05-04 21:30 30.26893 -12.61192 34070 ft 379 kts 169°
2026-05-04 21:31 30.22214 -12.61136 34082 ft 323 kts 211°
2026-05-04 21:31 30.20237 -12.62297 34080 ft 315 kts 219°
2026-05-04 21:32 30.16957 -12.65501 34067 ft 308 kts 228°
2026-05-04 21:32 30.13691 -12.68713 34078 ft 309 kts 224°
2026-05-04 21:33 30.10283 -12.71744 34073 ft 309 kts 224°
2026-05-04 21:33 30.08806 -12.73481 34055 ft 301 kts 239°
2026-05-04 21:33 30.07921 -12.75651 34078 ft 300 kts 253°
2026-05-04 21:33 30.07598 -12.78031 34082 ft 304 kts 265°
2026-05-04 21:34 30.07881 -12.80474 34077 ft 314 kts 279°
2026-05-04 21:34 30.08809 -12.82804 34084 ft 330 kts 294°
2026-05-04 21:34 30.10405 -12.84799 34076 ft 351 kts 311°
2026-05-04 21:34 30.12625 -12.86169 34068 ft 378 kts 331°
2026-05-04 21:35 30.15321 -12.86579 34062 ft 408 kts 354°
2026-05-04 21:35 30.18154 -12.85744 34078 ft 436 kts 19°
2026-05-04 21:35 30.20761 -12.83855 34091 ft 448 kts 31°
2026-05-04 21:36 30.25630 -12.79351 34080 ft 448 kts 32°
2026-05-04 21:36 30.30026 -12.74247 34055 ft 460 kts 62°
2026-05-04 21:36 30.31009 -12.70772 34068 ft 455 kts 87°
2026-05-04 21:37 30.30879 -12.67195 34070 ft 441 kts 111°
2026-05-04 21:37 30.29692 -12.64046 34067 ft 417 kts 136°
2026-05-04 21:37 30.27703 -12.61800 34068 ft 387 kts 161°
2026-05-04 21:37 30.25310 -12.60756 34065 ft 354 kts 185°
2026-05-04 21:38 30.22972 -12.60976 34081 ft 328 kts 206°
2026-05-04 21:38 30.19070 -12.63317 34074 ft 309 kts 225°
2026-05-04 21:39 30.15904 -12.66621 34072 ft 307 kts 226°
2026-05-04 21:39 30.12573 -12.69730 34074 ft 308 kts 224°
2026-05-04 21:40 30.09245 -12.72820 34054 ft 302 kts 234°
2026-05-04 21:40 30.08168 -12.74859 34073 ft 298 kts 248°
2026-05-04 21:40 30.07649 -12.77173 34080 ft 301 kts 261°
2026-05-04 21:40 30.07709 -12.79598 34076 ft 308 kts 274°
2026-05-04 21:41 30.08396 -12.81977 34077 ft 321 kts 288°
2026-05-04 21:41 30.09740 -12.84115 34076 ft 342 kts 304°
2026-05-04 21:41 30.11738 -12.85757 34075 ft 368 kts 323°
2026-05-04 21:41 30.14289 -12.86563 34073 ft 397 kts 345°
2026-05-04 21:42 30.17131 -12.86204 34075 ft 428 kts
2026-05-04 21:42 30.19845 -12.84619 34090 ft 446 kts 28°
2026-05-04 21:42 30.22328 -12.82449 34085 ft 449 kts 33°
2026-05-04 21:43 30.27190 -12.77935 34077 ft 448 kts 33°
2026-05-04 21:43 30.29411 -12.75386 34040 ft 457 kts 53°
2026-05-04 21:43 30.30776 -12.72086 34062 ft 458 kts 78°
2026-05-04 21:43 30.31055 -12.68480 34073 ft 448 kts 102°
2026-05-04 21:44 30.30239 -12.65122 34068 ft 426 kts 127°
2026-05-04 21:44 30.28507 -12.62509 34065 ft 398 kts 152°
2026-05-04 21:44 30.26215 -12.61010 34069 ft 365 kts 176°
2026-05-04 21:44 30.23817 -12.60792 34065 ft 334 kts 200°
2026-05-04 21:45 30.21658 -12.61569 34085 ft 320 kts 213°
2026-05-04 21:45 30.18067 -12.64355 34070 ft 307 kts 228°
2026-05-04 21:46 30.14870 -12.67633 34073 ft 308 kts 225°
2026-05-04 21:46 30.11496 -12.70683 34068 ft 307 kts 223°
2026-05-04 21:47 30.08502 -12.74050 34062 ft 298 kts 243°
2026-05-04 21:47 30.07778 -12.76276 34075 ft 299 kts 256°
2026-05-04 21:47 30.07612 -12.78673 34074 ft 304 kts 269°
2026-05-04 21:47 30.08058 -12.81091 34074 ft 316 kts 283°
2026-05-04 21:48 30.09152 -12.83350 34078 ft 334 kts 298°
2026-05-04 21:48 30.10909 -12.85217 34073 ft 358 kts 316°
2026-05-04 21:48 30.13277 -12.86384 34067 ft 386 kts 336°
2026-05-04 21:48 30.16055 -12.86495 34068 ft 416 kts
2026-05-04 21:49 30.18846 -12.85332 34076 ft 440 kts 24°
2026-05-04 21:49 30.23814 -12.81044 34076 ft 449 kts 33°
2026-05-04 21:50 30.28622 -12.76478 34055 ft 452 kts 43°
2026-05-04 21:50 30.30362 -12.73443 34055 ft 458 kts 68°
2026-05-04 21:50 30.31070 -12.69901 34070 ft 452 kts 93°
2026-05-04 21:50 30.30663 -12.66388 34063 ft 435 kts 118°
2026-05-04 21:51 30.29250 -12.63440 34062 ft 409 kts 142°
2026-05-04 21:51 30.27120 -12.61483 34068 ft 378 kts 167°
2026-05-04 21:51 30.24705 -12.60769 34062 ft 345 kts 192°
2026-05-04 21:51 30.22439 -12.61237 34074 ft 324 kts 209°
2026-05-04 21:52 30.20424 -12.62305 34072 ft 315 kts 218°
2026-05-04 21:52 30.17102 -12.65409 34063 ft 305 kts 227°
2026-05-04 21:53 30.13845 -12.68588 34070 ft 307 kts 224°
2026-05-04 21:53 30.10455 -12.71596 34066 ft 307 kts 223°
2026-05-04 21:54 30.06989 -12.74652 33855 ft 319 kts 224°
2026-05-04 21:54 30.05216 -12.76226 33113 ft 327 kts 223°
2026-05-04 21:54 30.03408 -12.77851 32221 ft 335 kts 223°
2026-05-04 21:54 30.01574 -12.79508 31529 ft 337 kts 224°
2026-05-04 21:55 29.99737 -12.81172 30950 ft 336 kts 223°
2026-05-04 21:55 29.97909 -12.82829 30404 ft 334 kts 224°
2026-05-04 21:55 29.96091 -12.84479 29860 ft 333 kts 224°
2026-05-04 21:55 29.94281 -12.86123 29316 ft 332 kts 224°
2026-05-04 21:56 29.92477 -12.87760 28798 ft 330 kts 223°
2026-05-04 21:56 29.90682 -12.89387 28278 ft 329 kts 223°
2026-05-04 21:56 29.88892 -12.91014 27775 ft 326 kts 223°
2026-05-04 21:56 29.87122 -12.92629 27280 ft 324 kts 224°
2026-05-04 21:57 29.85365 -12.94231 26799 ft 322 kts 224°
2026-05-04 21:57 29.83624 -12.95823 26324 ft 319 kts 223°
2026-05-04 21:57 29.81899 -12.97409 25841 ft 317 kts 224°
2026-05-04 21:57 29.80185 -12.98985 25342 ft 316 kts 224°
2026-05-04 21:58 29.78480 -13.00557 24851 ft 314 kts 224°
2026-05-04 21:58 29.76889 -13.02037 24413 ft 311 kts 224°
2026-05-04 21:58 29.75211 -13.03591 23945 ft 309 kts 224°
2026-05-04 21:58 29.73541 -13.05135 23457 ft 308 kts 223°
2026-05-04 21:59 29.71879 -13.06670 22983 ft 306 kts 224°
2026-05-04 21:59 29.70229 -13.08197 22514 ft 304 kts 224°
2026-05-04 21:59 29.68587 -13.09711 22061 ft 302 kts 224°
2026-05-04 21:59 29.66956 -13.11214 21594 ft 300 kts 224°
2026-05-04 22:00 29.65334 -13.12713 21126 ft 299 kts 224°
2026-05-04 22:00 29.63727 -13.14205 20687 ft 297 kts 223°
2026-05-04 22:00 29.62114 -13.15669 20238 ft 295 kts 223°
2026-05-04 22:00 29.60505 -13.17118 19776 ft 294 kts 223°
2026-05-04 22:01 29.58902 -13.18565 19323 ft 293 kts 223°
2026-05-04 22:01 29.57309 -13.20006 18901 ft 291 kts 223°
2026-05-04 22:01 29.55725 -13.21438 18462 ft 289 kts 223°
2026-05-04 22:01 29.54152 -13.22869 18034 ft 288 kts 223°
2026-05-04 22:02 29.52591 -13.24298 17610 ft 286 kts 223°
2026-05-04 22:02 29.51037 -13.25719 17188 ft 285 kts 223°
2026-05-04 22:02 29.49493 -13.27121 16765 ft 284 kts 223°
2026-05-04 22:02 29.47953 -13.28526 16341 ft 283 kts 223°
2026-05-04 22:03 29.46418 -13.29922 15925 ft 281 kts 223°
2026-05-04 22:03 29.44887 -13.31311 15512 ft 280 kts 223°
2026-05-04 22:03 29.43360 -13.32693 15102 ft 280 kts 223°
2026-05-04 22:03 29.41836 -13.34067 14692 ft 279 kts 223°
2026-05-04 22:04 29.40319 -13.35438 14297 ft 277 kts 223°
2026-05-04 22:04 29.38811 -13.36801 13893 ft 276 kts 223°
2026-05-04 22:04 29.37306 -13.38155 13490 ft 275 kts 223°
2026-05-04 22:04 29.35806 -13.39504 13061 ft 275 kts 223°
2026-05-04 22:05 29.34304 -13.40853 12624 ft 275 kts 223°
2026-05-04 22:05 29.32803 -13.42205 12198 ft 275 kts 223°
2026-05-04 22:05 29.31308 -13.43561 11757 ft 275 kts 223°
2026-05-04 22:05 29.29811 -13.44917 11318 ft 275 kts 223°
2026-05-04 22:06 29.28314 -13.46277 10882 ft 275 kts 223°
2026-05-04 22:06 29.26819 -13.47633 10463 ft 274 kts 223°
2026-05-04 22:06 29.25328 -13.48990 10133 ft 274 kts 223°
2026-05-04 22:06 29.23833 -13.50354 10076 ft 275 kts 223°
2026-05-04 22:07 29.22348 -13.51706 9824 ft 272 kts 223°
2026-05-04 22:07 29.20866 -13.53059 9342 ft 274 kts 223°
2026-05-04 22:07 29.19380 -13.54427 8903 ft 275 kts 223°
2026-05-04 22:07 29.17898 -13.55793 8554 ft 272 kts 223°
2026-05-04 22:08 29.16371 -13.57011 8356 ft 266 kts 213°
2026-05-04 22:08 29.14692 -13.57948 7834 ft 273 kts 208°
2026-05-04 22:08 29.12941 -13.58853 7298 ft 279 kts 208°
2026-05-04 22:08 29.11156 -13.59719 6882 ft 280 kts 202°
2026-05-04 22:09 29.09290 -13.60366 6474 ft 281 kts 198°
2026-05-04 22:09 29.07408 -13.60956 6079 ft 280 kts 198°
2026-05-04 22:09 29.05528 -13.61545 5699 ft 280 kts 197°
2026-05-04 22:09 29.03657 -13.62141 5333 ft 279 kts 198°
2026-05-04 22:10 29.01793 -13.62747 4952 ft 278 kts 197°
2026-05-04 22:10 28.99984 -13.63493 4593 ft 276 kts 205°
2026-05-04 22:10 28.98249 -13.64423 4219 ft 275 kts 207°
2026-05-04 22:10 28.96538 -13.65392 4015 ft 275 kts 207°
2026-05-04 22:11 28.94824 -13.66379 4010 ft 276 kts 207°
2026-05-04 22:11 28.93111 -13.67371 4006 ft 276 kts 207°
2026-05-04 22:11 28.91398 -13.68365 4004 ft 275 kts 207°
2026-05-04 22:11 28.89705 -13.69345 3773 ft 272 kts 207°
2026-05-04 22:12 28.88010 -13.70329 3338 ft 275 kts 207°
2026-05-04 22:12 28.86313 -13.71320 3035 ft 272 kts 207°
2026-05-04 22:12 28.84618 -13.72316 3000 ft 275 kts 207°
2026-05-04 22:12 28.82912 -13.73321 3002 ft 275 kts 207°
2026-05-04 22:13 28.81231 -13.74279 2926 ft 265 kts 200°
2026-05-04 22:13 28.79462 -13.74579 2743 ft 253 kts 170°
2026-05-04 22:13 28.77883 -13.73888 2575 ft 238 kts 138°
2026-05-04 22:13 28.76920 -13.72466 2415 ft 222 kts 105°
2026-05-04 22:14 28.76825 -13.70807 2297 ft 204 kts 70°
2026-05-04 22:14 28.77555 -13.69541 2281 ft 186 kts 34°
2026-05-04 22:14 28.78750 -13.69021 2304 ft 185 kts 15°
2026-05-04 22:14 28.79995 -13.68660 2302 ft 184 kts 18°
2026-05-04 22:15 28.81199 -13.68163 2298 ft 183 kts 23°
2026-05-04 22:15 28.82368 -13.67578 2296 ft 183 kts 26°
2026-05-04 22:15 28.83502 -13.66947 2278 ft 175 kts 27°
2026-05-04 22:15 28.84574 -13.66324 2046 ft 171 kts 27°
2026-05-04 22:16 28.85622 -13.65710 1798 ft 167 kts 28°
2026-05-04 22:16 28.86616 -13.65130 1579 ft 152 kts 28°
2026-05-04 22:16 28.87514 -13.64608 1367 ft 138 kts 28°
2026-05-04 22:16 28.88337 -13.64131 1142 ft 129 kts 27°
2026-05-04 22:17 28.89130 -13.63665 1006 ft 128 kts 28°
2026-05-04 22:17 28.89921 -13.63199 878 ft 127 kts 27°
2026-05-04 22:17 28.90719 -13.62740 701 ft 129 kts 27°
2026-05-04 22:17 28.91511 -13.62278 520 ft 127 kts 27°
2026-05-04 22:18 28.92300 -13.61824 373 ft 127 kts 26°
2026-05-04 22:18 28.93092 -13.61365 203 ft 126 kts 27°
2026-05-04 22:18 28.93873 -13.60910 49 ft 123 kts 26°
2026-05-04 22:18 28.94520 -13.60538 50 ft 79 kts 27°
2026-05-04 22:19 28.94860 -13.60340 58 ft 28 kts 27°
2026-05-04 22:19 28.95025 -13.60243 61 ft 25 kts 28°
2026-05-04 22:19 28.95147 -13.60206 64 ft 15 kts
2026-05-04 22:19 28.95252 -13.60207 67 ft 14 kts 360°
2026-05-04 22:20 28.95322 -13.60236 70 ft 9 kts 302°
2026-05-04 22:20 28.95346 -13.60288 74 ft 5 kts 297°
2026-05-04 22:20 28.95356 -13.60310 76 ft 2 kts 297°
2026-05-04 22:20 28.95366 -13.60333 78 ft 3 kts 297°
2026-05-04 22:21 28.95376 -13.60354 79 ft 1 kts 297°
2026-05-04 22:21 28.95381 -13.60365 80 ft 1 kts 297°
2026-05-04 22:21 28.95385 -13.60388 81 ft 4 kts 255°
2026-05-04 22:21 28.95344 -13.60419 81 ft 9 kts 204°
2026-05-04 22:22 28.95332 -13.60474 84 ft 6 kts 290°
2026-05-04 22:22 28.95346 -13.60507 86 ft 2 kts 297°
2026-05-04 22:22 28.95347 -13.60510 86 ft 0 kts 297°
2026-05-04 22:22 28.95348 -13.60513 86 ft 0 kts 297°